Time,TemperatureF,DewpointF,PressureIn,WindDirection,WindDirectionDegrees,WindSpeedMPH,WindSpeedGustMPH,Humidity,HourlyPrecipIn,Conditions,Clouds,dailyrainin,SoftwareType,DateUTC
2013-11-03 00:01:00,50.8,39.9,29.84,SE,128,0.0,0.0,66,0.00,,,0.02,LWC V2.00 B2112,2013-11-03 04:01:00,
2013-11-03 00:06:00,50.5,39.6,29.84,SE,128,0.0,0.0,66,0.00,,,0.02,LWC V2.00 B2112,2013-11-03 04:06:00,
2013-11-03 00:11:00,50.4,39.1,29.84,SE,128,0.0,0.0,65,0.00,,,0.02,LWC V2.00 B2112,2013-11-03 04:11:00,
2013-11-03 00:16:00,50.2,39.3,29.84,SE,128,0.0,0.0,66,0.00,,,0.02,LWC V2.00 B2112,2013-11-03 04:16:00,
2013-11-03 00:21:00,50.1,39.2,29.84,WNW,297,0.0,0.0,66,0.00,,,0.02,LWC V2.00 B2112,2013-11-03 04:21:00,
2013-11-03 00:26:00,49.9,39.0,29.84,WNW,297,0.0,0.0,66,0.00,,,0.02,LWC V2.00 B2112,2013-11-03 04:26:00,
2013-11-03 00:31:00,49.5,38.6,29.85,WNW,297,0.0,0.0,66,0.00,,,0.02,LWC V2.00 B2112,2013-11-03 04:31:00,
2013-11-03 00:36:00,49.2,39.1,29.85,WNW,297,0.0,0.0,68,0.00,,,0.02,LWC V2.00 B2112,2013-11-03 04:36:00,
2013-11-03 00:41:00,48.9,38.8,29.85,WNW,297,0.0,0.0,68,0.00,,,0.02,LWC V2.00 B2112,2013-11-03 04:41:00,
2013-11-03 00:46:00,48.5,38.8,29.85,WNW,297,0.0,0.0,69,0.00,,,0.02,LWC V2.00 B2112,2013-11-03 04:46:00,
2013-11-03 00:51:00,48.2,38.9,29.85,WNW,297,0.0,0.0,70,0.00,,,0.02,LWC V2.00 B2112,2013-11-03 04:51:00,
2013-11-03 00:56:00,47.9,38.6,29.85,WNW,297,0.0,0.0,70,0.00,,,0.02,LWC V2.00 B2112,2013-11-03 04:56:00,
2013-11-03 01:01:00,47.6,38.3,29.86,WNW,297,0.0,0.0,70,0.00,,,0.02,LWC V2.00 B2112,2013-11-03 05:01:00,
2013-11-03 01:06:00,47.3,38.0,29.86,WNW,297,0.0,0.0,70,0.00,,,0.02,LWC V2.00 B2112,2013-11-03 05:06:00,
2013-11-03 01:11:00,47.1,38.2,29.86,WNW,297,0.0,0.0,71,0.00,,,0.02,LWC V2.00 B2112,2013-11-03 05:11:00,
2013-11-03 01:16:00,47.0,37.7,29.86,WNW,297,0.0,0.0,70,0.00,,,0.02,LWC V2.00 B2112,2013-11-03 05:16:00,
2013-11-03 01:21:00,46.8,37.5,29.86,WNW,297,0.0,0.0,70,0.00,,,0.02,LWC V2.00 B2112,2013-11-03 05:21:00,
2013-11-03 01:26:00,46.8,37.5,29.86,WNW,297,0.0,0.0,70,0.00,,,0.02,LWC V2.00 B2112,2013-11-03 05:26:00,
2013-11-03 01:31:00,46.7,37.4,29.86,WNW,297,0.0,0.0,70,0.00,,,0.02,LWC V2.00 B2112,2013-11-03 05:31:00,
2013-11-03 01:36:00,46.4,37.5,29.86,WNW,297,0.0,0.0,71,0.00,,,0.02,LWC V2.00 B2112,2013-11-03 05:36:00,
2013-11-03 01:41:00,46.4,38.2,29.86,WNW,297,0.0,0.0,73,0.00,,,0.02,LWC V2.00 B2112,2013-11-03 05:41:00,
2013-11-03 01:46:00,46.2,38.4,29.87,WNW,297,0.0,0.0,74,0.00,,,0.02,LWC V2.00 B2112,2013-11-03 05:46:00,
2013-11-03 01:51:00,46.1,37.9,29.87,WNW,297,0.0,0.0,73,0.00,,,0.02,LWC V2.00 B2112,2013-11-03 05:51:00,
2013-11-03 01:56:00,45.8,38.0,29.87,WNW,297,0.0,0.0,74,0.00,,,0.02,LWC V2.00 B2112,2013-11-03 05:56:00,
2013-11-03 01:01:00,45.7,37.9,29.87,WNW,297,0.0,0.0,74,0.00,,,0.00,LWC V2.00 B2112,2013-11-03 06:01:00,
2013-11-03 01:06:00,45.4,37.3,29.87,WNW,297,0.0,0.0,73,0.00,,,0.00,LWC V2.00 B2112,2013-11-03 06:06:00,
2013-11-03 01:11:00,45.2,37.4,29.87,WNW,297,0.0,0.0,74,0.00,,,0.00,LWC V2.00 B2112,2013-11-03 06:11:00,
2013-11-03 01:16:00,44.9,37.5,29.88,WNW,297,0.0,0.0,75,0.00,,,0.00,LWC V2.00 B2112,2013-11-03 06:16:00,
2013-11-03 01:21:00,44.8,37.4,29.88,WNW,297,0.0,0.0,75,0.00,,,0.00,LWC V2.00 B2112,2013-11-03 06:21:00,
2013-11-03 01:26:00,44.5,36.7,29.88,WNW,297,0.0,0.0,74,0.00,,,0.00,LWC V2.00 B2112,2013-11-03 06:26:00,
2013-11-03 01:31:00,44.3,37.6,29.88,WNW,297,0.0,0.0,77,0.00,,,0.00,LWC V2.00 B2112,2013-11-03 06:31:00,
2013-11-03 01:36:00,44.2,37.8,29.88,WNW,297,0.0,0.0,78,0.00,,,0.00,LWC V2.00 B2112,2013-11-03 06:36:00,
2013-11-03 01:41:00,44.1,38.3,29.88,WNW,297,0.0,0.0,80,0.00,,,0.00,LWC V2.00 B2112,2013-11-03 06:41:00,
2013-11-03 01:46:00,43.8,38.0,29.88,WNW,297,0.0,0.0,80,0.00,,,0.00,LWC V2.00 B2112,2013-11-03 06:46:00,
2013-11-03 01:51:00,43.8,38.4,29.88,WNW,297,0.0,0.0,81,0.00,,,0.00,LWC V2.00 B2112,2013-11-03 06:51:00,
2013-11-03 01:56:00,43.6,38.2,29.88,WNW,297,0.0,0.0,81,0.00,,,0.00,LWC V2.00 B2112,2013-11-03 06:56:00,
2013-11-03 02:01:00,43.5,38.1,29.88,WNW,297,0.0,0.0,81,0.00,,,0.00,LWC V2.00 B2112,2013-11-03 07:01:00,
2013-11-03 02:06:00,43.3,37.9,29.88,WNW,297,0.0,0.0,81,0.00,,,0.00,LWC V2.00 B2112,2013-11-03 07:06:00,
2013-11-03 02:11:00,43.2,38.1,29.88,WNW,297,0.0,0.0,82,0.00,,,0.00,LWC V2.00 B2112,2013-11-03 07:11:00,
2013-11-03 02:16:00,43.2,38.1,29.88,WNW,297,0.0,0.0,82,0.00,,,0.00,LWC V2.00 B2112,2013-11-03 07:16:00,
2013-11-03 02:21:00,43.1,38.3,29.88,WNW,297,0.0,0.0,83,0.00,,,0.00,LWC V2.00 B2112,2013-11-03 07:21:00,
2013-11-03 02:26:00,43.1,38.6,29.88,WNW,297,0.0,0.0,84,0.00,,,0.00,LWC V2.00 B2112,2013-11-03 07:26:00,
2013-11-03 02:31:00,42.9,38.4,29.89,WNW,297,0.0,0.0,84,0.00,,,0.00,LWC V2.00 B2112,2013-11-03 07:31:00,
2013-11-03 02:36:00,42.8,38.0,29.89,WNW,297,0.0,0.0,83,0.00,,,0.00,LWC V2.00 B2112,2013-11-03 07:36:00,
2013-11-03 02:41:00,42.6,38.1,29.89,WNW,297,0.0,0.0,84,0.00,,,0.00,LWC V2.00 B2112,2013-11-03 07:41:00,
2013-11-03 02:46:00,42.5,38.0,29.89,WNW,297,0.0,0.0,84,0.00,,,0.00,LWC V2.00 B2112,2013-11-03 07:46:00,
2013-11-03 02:51:00,42.3,38.1,29.89,WNW,297,0.0,0.0,85,0.00,,,0.00,LWC V2.00 B2112,2013-11-03 07:51:00,
2013-11-03 02:56:00,42.2,38.0,29.89,WNW,297,0.0,0.0,85,0.00,,,0.00,LWC V2.00 B2112,2013-11-03 07:56:00,
2013-11-03 03:01:00,42.1,37.9,29.89,WNW,297,0.0,0.0,85,0.00,,,0.00,LWC V2.00 B2112,2013-11-03 08:01:00,
2013-11-03 03:06:00,41.9,38.0,29.89,WNW,297,0.0,0.0,86,0.00,,,0.00,LWC V2.00 B2112,2013-11-03 08:06:00,
2013-11-03 03:11:00,41.8,37.9,29.89,WNW,297,0.0,0.0,86,0.00,,,0.00,LWC V2.00 B2112,2013-11-03 08:11:00,
2013-11-03 03:16:00,41.6,37.7,29.90,WNW,297,0.0,0.0,86,0.00,,,0.00,LWC V2.00 B2112,2013-11-03 08:16:00,
2013-11-03 03:21:00,41.6,37.7,29.90,WNW,297,0.0,0.0,86,0.00,,,0.00,LWC V2.00 B2112,2013-11-03 08:21:00,
2013-11-03 03:26:00,41.5,37.6,29.90,WNW,297,0.0,0.0,86,0.00,,,0.00,LWC V2.00 B2112,2013-11-03 08:26:00,
2013-11-03 03:31:00,41.3,37.4,29.90,WNW,297,0.0,0.0,86,0.00,,,0.00,LWC V2.00 B2112,2013-11-03 08:31:00,
2013-11-03 03:36:00,41.2,37.6,29.90,WNW,297,0.0,0.0,87,0.00,,,0.00,LWC V2.00 B2112,2013-11-03 08:36:00,
2013-11-03 03:41:00,41.1,37.5,29.90,WNW,297,0.0,0.0,87,0.00,,,0.00,LWC V2.00 B2112,2013-11-03 08:41:00,
2013-11-03 03:46:00,40.9,37.3,29.91,WNW,297,0.0,0.0,87,0.00,,,0.00,LWC V2.00 B2112,2013-11-03 08:46:00,
2013-11-03 03:51:00,40.9,37.6,29.91,WNW,297,0.0,0.0,88,0.00,,,0.00,LWC V2.00 B2112,2013-11-03 08:51:00,
2013-11-03 03:56:00,40.8,37.5,29.91,WNW,297,0.0,0.0,88,0.00,,,0.00,LWC V2.00 B2112,2013-11-03 08:56:00,
2013-11-03 04:01:00,40.8,37.5,29.91,WNW,297,0.0,0.0,88,0.00,,,0.00,LWC V2.00 B2112,2013-11-03 09:01:00,
2013-11-03 04:06:00,40.6,37.3,29.91,WNW,297,0.0,0.0,88,0.00,,,0.00,LWC V2.00 B2112,2013-11-03 09:06:00,
2013-11-03 04:11:00,40.5,37.5,29.91,WNW,297,0.0,0.0,89,0.00,,,0.00,LWC V2.00 B2112,2013-11-03 09:11:00,
2013-11-03 04:16:00,40.3,37.3,29.92,WNW,297,0.0,0.0,89,0.00,,,0.00,LWC V2.00 B2112,2013-11-03 09:16:00,
2013-11-03 04:21:00,40.2,37.5,29.92,WNW,297,0.0,0.0,90,0.00,,,0.00,LWC V2.00 B2112,2013-11-03 09:21:00,
2013-11-03 04:26:00,40.1,37.4,29.92,WNW,297,0.0,0.0,90,0.00,,,0.00,LWC V2.00 B2112,2013-11-03 09:26:00,
2013-11-03 04:31:00,40.1,37.4,29.92,WNW,297,0.0,0.0,90,0.00,,,0.00,LWC V2.00 B2112,2013-11-03 09:31:00,
2013-11-03 04:36:00,39.9,37.2,29.92,WNW,297,0.0,0.0,90,0.00,,,0.00,LWC V2.00 B2112,2013-11-03 09:36:00,
2013-11-03 04:41:00,39.8,37.1,29.92,WNW,297,0.0,0.0,90,0.00,,,0.00,LWC V2.00 B2112,2013-11-03 09:41:00,
2013-11-03 04:46:00,39.6,36.9,29.93,WNW,297,0.0,0.0,90,0.00,,,0.00,LWC V2.00 B2112,2013-11-03 09:46:00,
2013-11-03 04:51:00,39.6,37.2,29.93,WNW,297,0.0,0.0,91,0.00,,,0.00,LWC V2.00 B2112,2013-11-03 09:51:00,
2013-11-03 04:56:00,39.5,37.1,29.93,WNW,297,0.0,0.0,91,0.00,,,0.00,LWC V2.00 B2112,2013-11-03 09:56:00,
2013-11-03 05:01:00,39.5,37.1,29.94,WNW,297,0.0,0.0,91,0.00,,,0.00,LWC V2.00 B2112,2013-11-03 10:01:00,
2013-11-03 05:06:00,39.3,37.2,29.94,WNW,297,0.0,0.0,92,0.00,,,0.00,LWC V2.00 B2112,2013-11-03 10:06:00,
2013-11-03 05:11:00,39.2,37.1,29.94,WNW,297,0.0,0.0,92,0.00,,,0.00,LWC V2.00 B2112,2013-11-03 10:11:00,
2013-11-03 05:16:00,39.2,37.1,29.95,WNW,297,0.0,0.0,92,0.00,,,0.00,LWC V2.00 B2112,2013-11-03 10:16:00,
2013-11-03 05:21:00,39.1,37.0,29.95,WNW,297,0.0,0.0,92,0.00,,,0.00,LWC V2.00 B2112,2013-11-03 10:21:00,
2013-11-03 05:26:00,39.1,37.0,29.95,WNW,297,0.0,0.0,92,0.00,,,0.00,LWC V2.00 B2112,2013-11-03 10:26:00,
2013-11-03 05:31:00,38.9,36.8,29.96,WNW,297,0.0,0.0,92,0.00,,,0.00,LWC V2.00 B2112,2013-11-03 10:31:00,
2013-11-03 05:36:00,38.9,37.1,29.96,WNW,297,0.0,0.0,93,0.00,,,0.00,LWC V2.00 B2112,2013-11-03 10:36:00,
2013-11-03 05:41:00,38.9,37.1,29.96,WNW,297,0.0,0.0,93,0.00,,,0.00,LWC V2.00 B2112,2013-11-03 10:41:00,
2013-11-03 05:46:00,38.8,37.0,29.96,WNW,297,0.0,0.0,93,0.00,,,0.00,LWC V2.00 B2112,2013-11-03 10:46:00,
2013-11-03 05:51:00,38.6,36.8,29.96,WNW,297,0.0,0.0,93,0.00,,,0.00,LWC V2.00 B2112,2013-11-03 10:51:00,
2013-11-03 05:56:00,38.5,36.7,29.96,WNW,297,0.0,0.0,93,0.00,,,0.00,LWC V2.00 B2112,2013-11-03 10:56:00,
2013-11-03 06:01:00,38.5,36.7,29.97,WNW,297,0.0,0.0,93,0.00,,,0.00,LWC V2.00 B2112,2013-11-03 11:01:00,
2013-11-03 06:06:00,38.5,36.9,29.97,WNW,297,0.0,0.0,94,0.00,,,0.00,LWC V2.00 B2112,2013-11-03 11:06:00,
2013-11-03 06:11:00,38.6,37.0,29.97,WNW,297,0.0,0.0,94,0.00,,,0.00,LWC V2.00 B2112,2013-11-03 11:11:00,
2013-11-03 06:16:00,38.6,37.3,29.98,WNW,297,0.0,0.0,95,0.00,,,0.00,LWC V2.00 B2112,2013-11-03 11:16:00,
2013-11-03 06:21:00,38.8,37.5,29.98,WNW,297,0.0,0.0,95,0.00,,,0.00,LWC V2.00 B2112,2013-11-03 11:21:00,
2013-11-03 06:26:00,38.6,37.3,29.98,WNW,297,0.0,0.0,95,0.00,,,0.00,LWC V2.00 B2112,2013-11-03 11:26:00,
2013-11-03 06:31:00,38.6,37.3,29.99,WNW,297,0.0,0.0,95,0.00,,,0.00,LWC V2.00 B2112,2013-11-03 11:31:00,
2013-11-03 06:36:00,38.5,37.2,29.99,WNW,297,0.0,0.0,95,0.00,,,0.00,LWC V2.00 B2112,2013-11-03 11:36:00,
2013-11-03 06:41:00,38.5,37.2,29.99,WNW,297,0.0,0.0,95,0.00,,,0.00,LWC V2.00 B2112,2013-11-03 11:41:00,
2013-11-03 06:46:00,38.5,37.2,30.00,WNW,297,0.0,0.0,95,0.00,,,0.00,LWC V2.00 B2112,2013-11-03 11:46:00,
2013-11-03 06:51:00,38.3,37.0,30.00,WNW,297,0.0,0.0,95,0.00,,,0.00,LWC V2.00 B2112,2013-11-03 11:51:00,
2013-11-03 06:56:00,38.3,37.0,30.00,WNW,297,0.0,0.0,95,0.00,,,0.00,LWC V2.00 B2112,2013-11-03 11:56:00,
2013-11-03 07:01:00,38.3,37.0,30.00,WNW,297,0.0,0.0,95,0.00,,,0.00,LWC V2.00 B2112,2013-11-03 12:01:00,
2013-11-03 07:06:00,38.3,37.0,30.00,WNW,297,0.0,0.0,95,0.00,,,0.00,LWC V2.00 B2112,2013-11-03 12:06:00,
2013-11-03 07:11:00,38.3,37.0,30.00,WNW,297,0.0,0.0,95,0.00,,,0.00,LWC V2.00 B2112,2013-11-03 12:11:00,
2013-11-03 07:16:00,38.3,37.0,30.01,WNW,297,0.0,0.0,95,0.00,,,0.00,LWC V2.00 B2112,2013-11-03 12:16:00,
2013-11-03 07:21:00,38.5,37.2,30.01,WNW,297,0.0,0.0,95,0.00,,,0.00,LWC V2.00 B2112,2013-11-03 12:21:00,
2013-11-03 07:26:00,38.6,37.6,30.01,WNW,297,0.0,0.0,96,0.00,,,0.00,LWC V2.00 B2112,2013-11-03 12:26:00,
2013-11-03 07:31:00,38.9,37.9,30.01,WNW,297,0.0,0.0,96,0.00,,,0.00,LWC V2.00 B2112,2013-11-03 12:31:00,
2013-11-03 07:36:00,39.3,38.3,30.01,WNW,297,0.0,0.0,96,0.00,,,0.00,LWC V2.00 B2112,2013-11-03 12:36:00,
2013-11-03 07:41:00,39.8,38.8,30.01,WNW,297,0.0,0.0,96,0.00,,,0.00,LWC V2.00 B2112,2013-11-03 12:41:00,
2013-11-03 07:46:00,40.2,39.2,30.02,WNW,297,0.0,0.0,96,0.00,,,0.00,LWC V2.00 B2112,2013-11-03 12:46:00,
2013-11-03 07:51:00,40.6,39.3,30.02,WNW,297,0.0,0.0,95,0.00,,,0.00,LWC V2.00 B2112,2013-11-03 12:51:00,
2013-11-03 07:56:00,40.9,39.6,30.02,WNW,297,0.0,0.0,95,0.00,,,0.00,LWC V2.00 B2112,2013-11-03 12:56:00,
2013-11-03 08:01:00,41.8,39.4,30.03,WNW,297,0.0,0.0,91,0.00,,,0.00,LWC V2.00 B2112,2013-11-03 13:01:00,
2013-11-03 08:06:00,42.8,38.9,30.03,WNW,293,0.0,0.0,86,0.00,,,0.00,LWC V2.00 B2112,2013-11-03 13:06:00,
2013-11-03 08:11:00,43.6,38.8,30.03,WNW,291,0.0,0.0,83,0.00,,,0.00,LWC V2.00 B2112,2013-11-03 13:11:00,
2013-11-03 08:16:00,44.1,38.6,30.04,WNW,299,0.0,0.0,81,0.00,,,0.00,LWC V2.00 B2112,2013-11-03 13:16:00,
2013-11-03 08:21:00,44.5,39.0,30.04,WNW,282,0.0,0.0,81,0.00,,,0.00,LWC V2.00 B2112,2013-11-03 13:21:00,
2013-11-03 08:26:00,45.1,39.3,30.04,WNW,282,0.0,0.0,80,0.00,,,0.00,LWC V2.00 B2112,2013-11-03 13:26:00,
2013-11-03 08:31:00,45.7,38.9,30.06,West,281,0.0,0.0,77,0.00,,,0.00,LWC V2.00 B2112,2013-11-03 13:31:00,
2013-11-03 08:36:00,46.4,38.9,30.06,WNW,282,0.0,0.0,75,0.00,,,0.00,LWC V2.00 B2112,2013-11-03 13:36:00,
2013-11-03 08:41:00,47.3,39.4,30.06,WNW,285,0.0,0.0,74,0.00,,,0.00,LWC V2.00 B2112,2013-11-03 13:41:00,
2013-11-03 08:46:00,47.9,40.0,30.07,WSW,251,0.0,0.0,74,0.00,,,0.00,LWC V2.00 B2112,2013-11-03 13:46:00,
2013-11-03 08:51:00,48.6,39.3,30.07,NNW,333,0.0,0.0,70,0.00,,,0.00,LWC V2.00 B2112,2013-11-03 13:51:00,
2013-11-03 08:56:00,49.5,39.8,30.07,WSW,257,0.0,0.0,69,0.00,,,0.00,LWC V2.00 B2112,2013-11-03 13:56:00,
2013-11-03 09:01:00,50.2,40.4,30.07,North,1,0.0,0.0,69,0.00,,,0.00,LWC V2.00 B2112,2013-11-03 14:01:00,
2013-11-03 09:06:00,51.1,40.5,30.07,NNE,27,0.0,0.0,67,0.00,,,0.00,LWC V2.00 B2112,2013-11-03 14:06:00,
2013-11-03 09:11:00,51.9,40.9,30.07,West,263,0.0,0.0,66,0.00,,,0.00,LWC V2.00 B2112,2013-11-03 14:11:00,
2013-11-03 09:16:00,52.6,41.6,30.07,SW,217,0.0,0.0,66,0.00,,,0.00,LWC V2.00 B2112,2013-11-03 14:16:00,
2013-11-03 09:21:00,53.3,41.0,30.07,WNW,290,0.0,0.0,63,0.00,,,0.00,LWC V2.00 B2112,2013-11-03 14:21:00,
2013-11-03 09:26:00,53.9,41.6,30.07,SW,224,0.0,0.0,63,0.00,,,0.00,LWC V2.00 B2112,2013-11-03 14:26:00,
2013-11-03 09:31:00,54.5,40.9,30.07,WSW,252,0.0,0.0,60,0.00,,,0.00,LWC V2.00 B2112,2013-11-03 14:31:00,
2013-11-03 09:36:00,55.1,40.1,30.07,NW,311,0.0,0.0,57,0.00,,,0.00,LWC V2.00 B2112,2013-11-03 14:36:00,
2013-11-03 09:41:00,55.3,40.8,30.07,ESE,118,0.0,0.0,58,0.00,,,0.00,LWC V2.00 B2112,2013-11-03 14:41:00,
2013-11-03 09:46:00,55.6,39.2,30.07,North,359,0.0,2.0,54,0.00,,,0.00,LWC V2.00 B2112,2013-11-03 14:46:00,
2013-11-03 09:51:00,55.9,39.0,30.07,WSW,255,0.0,3.0,53,0.00,,,0.00,LWC V2.00 B2112,2013-11-03 14:51:00,
2013-11-03 09:56:00,56.2,40.2,30.07,WNW,287,0.0,0.0,55,0.00,,,0.00,LWC V2.00 B2112,2013-11-03 14:56:00,
2013-11-03 10:01:00,56.2,39.3,30.08,NNE,15,0.0,1.0,53,0.00,,,0.00,LWC V2.00 B2112,2013-11-03 15:01:00,
2013-11-03 10:11:00,56.9,38.5,30.08,ESE,120,0.0,0.0,50,0.00,,,0.00,LWC V2.00 B2112,2013-11-03 15:11:00,
2013-11-03 10:16:00,57.3,39.3,30.08,NNE,18,0.0,1.0,51,0.00,,,0.00,LWC V2.00 B2112,2013-11-03 15:16:00,
2013-11-03 10:21:00,57.6,40.6,30.08,WNW,293,0.0,0.0,53,0.00,,,0.00,LWC V2.00 B2112,2013-11-03 15:21:00,
2013-11-03 10:26:00,57.6,38.6,30.08,East,82,0.0,0.0,49,0.00,,,0.00,LWC V2.00 B2112,2013-11-03 15:26:00,
2013-11-03 10:31:00,58.1,41.1,30.08,WNW,296,0.0,0.0,53,0.00,,,0.00,LWC V2.00 B2112,2013-11-03 15:31:00,
2013-11-03 10:36:00,58.4,40.3,30.08,NE,56,0.0,0.0,51,0.00,,,0.00,LWC V2.00 B2112,2013-11-03 15:36:00,
2013-11-03 10:41:00,58.6,40.5,30.08,ESE,113,0.0,1.0,51,0.00,,,0.00,LWC V2.00 B2112,2013-11-03 15:41:00,
2013-11-03 10:46:00,59.0,40.4,30.08,WSW,250,0.0,0.0,50,0.00,,,0.00,LWC V2.00 B2112,2013-11-03 15:46:00,
2013-11-03 10:51:00,59.3,38.5,30.08,NW,307,0.0,0.0,46,0.00,,,0.00,LWC V2.00 B2112,2013-11-03 15:51:00,
2013-11-03 10:56:00,59.2,39.0,30.08,East,80,0.0,2.0,47,0.00,,,0.00,LWC V2.00 B2112,2013-11-03 15:56:00,
2013-11-03 11:01:00,59.2,39.0,30.08,WNW,303,0.0,1.0,47,0.00,,,0.00,LWC V2.00 B2112,2013-11-03 16:01:00,
2013-11-03 11:06:00,59.2,40.0,30.08,NW,318,0.0,2.0,49,0.00,,,0.00,LWC V2.00 B2112,2013-11-03 16:06:00,
2013-11-03 11:11:00,59.2,39.0,30.08,East,80,0.0,0.0,47,0.00,,,0.00,LWC V2.00 B2112,2013-11-03 16:11:00,
2013-11-03 11:16:00,59.6,40.4,30.09,East,88,0.0,0.0,49,0.00,,,0.00,LWC V2.00 B2112,2013-11-03 16:16:00,
2013-11-03 11:21:00,60.2,39.3,30.09,NE,50,0.0,0.0,46,0.00,,,0.00,LWC V2.00 B2112,2013-11-03 16:21:00,
2013-11-03 11:26:00,60.1,40.3,30.09,SE,146,0.0,0.0,48,0.00,,,0.00,LWC V2.00 B2112,2013-11-03 16:26:00,
2013-11-03 11:31:00,60.2,39.3,30.09,SW,228,0.0,0.0,46,0.00,,,0.00,LWC V2.00 B2112,2013-11-03 16:31:00,
2013-11-03 11:36:00,60.5,38.5,30.09,WNW,293,0.0,1.0,44,0.00,,,0.00,LWC V2.00 B2112,2013-11-03 16:36:00,
2013-11-03 11:41:00,60.4,39.5,30.09,SW,233,0.0,0.0,46,0.00,,,0.00,LWC V2.00 B2112,2013-11-03 16:41:00,
2013-11-03 11:46:00,60.5,38.5,30.09,NW,304,0.0,0.0,44,0.00,,,0.00,LWC V2.00 B2112,2013-11-03 16:46:00,
2013-11-03 11:51:00,60.5,39.6,30.09,NW,322,0.0,6.0,46,0.00,,,0.00,LWC V2.00 B2112,2013-11-03 16:51:00,
2013-11-03 11:56:00,60.9,40.5,30.09,NW,311,0.0,0.0,47,0.00,,,0.00,LWC V2.00 B2112,2013-11-03 16:56:00,
2013-11-03 12:01:00,60.7,40.3,30.08,ESE,103,0.0,0.0,47,0.00,,,0.00,LWC V2.00 B2112,2013-11-03 17:01:00,
2013-11-03 12:06:00,60.9,38.8,30.08,West,276,0.0,0.0,44,0.00,,,0.00,LWC V2.00 B2112,2013-11-03 17:06:00,
2013-11-03 12:11:00,60.5,40.2,30.08,SW,218,0.0,0.0,47,0.00,,,0.00,LWC V2.00 B2112,2013-11-03 17:11:00,
2013-11-03 12:16:00,60.7,36.9,30.09,WNW,300,0.0,1.0,41,0.00,,,0.00,LWC V2.00 B2112,2013-11-03 17:16:00,
2013-11-03 12:21:00,60.2,37.0,30.09,NNE,27,0.0,0.0,42,0.00,,,0.00,LWC V2.00 B2112,2013-11-03 17:21:00,
2013-11-03 12:26:00,60.5,39.1,30.09,SSW,200,0.0,0.0,45,0.00,,,0.00,LWC V2.00 B2112,2013-11-03 17:26:00,
2013-11-03 12:31:00,61.0,40.1,30.08,North,7,0.0,0.0,46,0.00,,,0.00,LWC V2.00 B2112,2013-11-03 17:31:00,
2013-11-03 12:36:00,61.0,37.7,30.08,NW,307,0.0,6.0,42,0.00,,,0.00,LWC V2.00 B2112,2013-11-03 17:36:00,
2013-11-03 12:41:00,60.5,38.5,30.08,NW,319,0.0,0.0,44,0.00,,,0.00,LWC V2.00 B2112,2013-11-03 17:41:00,
2013-11-03 12:46:00,60.9,37.7,30.07,SE,133,0.0,0.0,42,0.00,,,0.00,LWC V2.00 B2112,2013-11-03 17:46:00,
2013-11-03 12:51:00,61.0,37.1,30.07,North,6,0.0,7.0,41,0.00,,,0.00,LWC V2.00 B2112,2013-11-03 17:51:00,
2013-11-03 12:56:00,61.2,39.1,30.07,WNW,303,0.0,0.0,44,0.00,,,0.00,LWC V2.00 B2112,2013-11-03 17:56:00,
2013-11-03 13:01:00,61.5,38.8,30.07,North,356,0.0,1.0,43,0.00,,,0.00,LWC V2.00 B2112,2013-11-03 18:01:00,
2013-11-03 13:06:00,61.5,36.3,30.07,WNW,292,0.0,0.0,39,0.00,,,0.00,LWC V2.00 B2112,2013-11-03 18:06:00,
2013-11-03 13:11:00,61.2,39.1,30.07,WNW,292,0.0,0.0,44,0.00,,,0.00,LWC V2.00 B2112,2013-11-03 18:11:00,
2013-11-03 13:16:00,61.3,36.1,30.07,NW,304,0.0,0.0,39,0.00,,,0.00,LWC V2.00 B2112,2013-11-03 18:16:00,
2013-11-03 13:21:00,61.6,37.7,30.07,SE,144,0.0,0.0,41,0.00,,,0.00,LWC V2.00 B2112,2013-11-03 18:21:00,
2013-11-03 13:26:00,62.0,36.1,30.07,North,4,0.0,0.0,38,0.00,,,0.00,LWC V2.00 B2112,2013-11-03 18:26:00,
2013-11-03 13:31:00,61.8,38.5,30.08,ESE,106,0.0,0.0,42,0.00,,,0.00,LWC V2.00 B2112,2013-11-03 18:31:00,
2013-11-03 13:36:00,61.8,38.5,30.08,East,87,0.0,0.0,42,0.00,,,0.00,LWC V2.00 B2112,2013-11-03 18:36:00,
2013-11-03 13:41:00,61.6,37.7,30.08,WNW,300,0.0,0.0,41,0.00,,,0.00,LWC V2.00 B2112,2013-11-03 18:41:00,
2013-11-03 13:46:00,60.5,36.1,30.08,East,80,0.0,0.0,40,0.00,,,0.00,LWC V2.00 B2112,2013-11-03 18:46:00,
2013-11-03 13:51:00,60.5,36.7,30.08,West,277,0.0,0.0,41,0.00,,,0.00,LWC V2.00 B2112,2013-11-03 18:51:00,
2013-11-03 13:56:00,61.3,38.6,30.08,NW,312,0.0,0.0,43,0.00,,,0.00,LWC V2.00 B2112,2013-11-03 18:56:00,
2013-11-03 14:01:00,61.6,37.7,30.08,SE,132,0.0,0.0,41,0.00,,,0.00,LWC V2.00 B2112,2013-11-03 19:01:00,
2013-11-03 14:06:00,60.9,37.7,30.08,West,281,0.0,0.0,42,0.00,,,0.00,LWC V2.00 B2112,2013-11-03 19:06:00,
2013-11-03 14:11:00,60.4,38.4,30.08,NNW,342,0.0,0.0,44,0.00,,,0.00,LWC V2.00 B2112,2013-11-03 19:11:00,
2013-11-03 14:16:00,60.9,37.7,30.08,WNW,296,0.0,0.0,42,0.00,,,0.00,LWC V2.00 B2112,2013-11-03 19:16:00,
2013-11-03 14:21:00,61.3,36.8,30.08,WNW,293,0.0,0.0,40,0.00,,,0.00,LWC V2.00 B2112,2013-11-03 19:21:00,
2013-11-03 14:26:00,61.6,37.0,30.08,West,269,0.0,0.0,40,0.00,,,0.00,LWC V2.00 B2112,2013-11-03 19:26:00,
2013-11-03 14:31:00,61.6,39.5,30.09,WNW,301,0.0,0.0,44,0.00,,,0.00,LWC V2.00 B2112,2013-11-03 19:31:00,
2013-11-03 14:36:00,62.0,38.0,30.09,WNW,286,0.0,0.0,41,0.00,,,0.00,LWC V2.00 B2112,2013-11-03 19:36:00,
2013-11-03 14:41:00,61.8,38.5,30.09,NW,312,0.0,1.0,42,0.00,,,0.00,LWC V2.00 B2112,2013-11-03 19:41:00,
2013-11-03 14:46:00,61.0,37.1,30.09,WNW,294,0.0,1.0,41,0.00,,,0.00,LWC V2.00 B2112,2013-11-03 19:46:00,
2013-11-03 14:51:00,61.0,38.9,30.09,NE,47,0.0,0.0,44,0.00,,,0.00,LWC V2.00 B2112,2013-11-03 19:51:00,
2013-11-03 14:56:00,61.5,37.6,30.09,WSW,252,0.0,0.0,41,0.00,,,0.00,LWC V2.00 B2112,2013-11-03 19:56:00,
2013-11-03 15:01:00,61.8,37.2,30.09,SE,138,0.0,0.0,40,0.00,,,0.00,LWC V2.00 B2112,2013-11-03 20:01:00,
2013-11-03 15:06:00,62.1,38.7,30.09,SE,138,0.0,0.0,42,0.00,,,0.00,LWC V2.00 B2112,2013-11-03 20:06:00,
2013-11-03 15:11:00,62.4,37.1,30.09,WSW,238,0.0,0.0,39,0.00,,,0.00,LWC V2.00 B2112,2013-11-03 20:11:00,
2013-11-03 15:16:00,62.6,37.3,30.09,NW,319,0.0,1.0,39,0.00,,,0.00,LWC V2.00 B2112,2013-11-03 20:16:00,
2013-11-03 15:21:00,62.0,37.4,30.09,West,272,0.0,0.0,40,0.00,,,0.00,LWC V2.00 B2112,2013-11-03 20:21:00,
2013-11-03 15:26:00,61.6,37.0,30.09,NNE,32,0.0,0.0,40,0.00,,,0.00,LWC V2.00 B2112,2013-11-03 20:26:00,
2013-11-03 15:31:00,61.5,37.6,30.10,North,352,0.0,0.0,41,0.00,,,0.00,LWC V2.00 B2112,2013-11-03 20:31:00,
2013-11-03 15:36:00,61.6,37.7,30.10,South,190,0.0,0.0,41,0.00,,,0.00,LWC V2.00 B2112,2013-11-03 20:36:00,
2013-11-03 15:41:00,61.5,38.2,30.10,East,99,0.0,0.0,42,0.00,,,0.00,LWC V2.00 B2112,2013-11-03 20:41:00,
2013-11-03 15:46:00,61.3,37.4,30.10,ESE,112,0.0,0.0,41,0.00,,,0.00,LWC V2.00 B2112,2013-11-03 20:46:00,
2013-11-03 15:51:00,61.2,36.7,30.10,NNE,31,0.0,0.0,40,0.00,,,0.00,LWC V2.00 B2112,2013-11-03 20:51:00,
2013-11-03 15:56:00,60.9,36.4,30.10,WNW,293,0.0,1.0,40,0.00,,,0.00,LWC V2.00 B2112,2013-11-03 20:56:00,
2013-11-03 16:01:00,60.5,36.1,30.11,WNW,293,0.0,0.0,40,0.00,,,0.00,LWC V2.00 B2112,2013-11-03 21:01:00,
2013-11-03 16:06:00,60.1,35.7,30.11,ESE,110,0.0,0.0,40,0.00,,,0.00,LWC V2.00 B2112,2013-11-03 21:06:00,
2013-11-03 16:11:00,59.9,39.1,30.11,NW,314,0.0,0.0,46,0.00,,,0.00,LWC V2.00 B2112,2013-11-03 21:11:00,
2013-11-03 16:16:00,59.5,37.6,30.12,NW,314,0.0,0.0,44,0.00,,,0.00,LWC V2.00 B2112,2013-11-03 21:16:00,
2013-11-03 16:21:00,59.0,37.7,30.12,NW,314,0.0,0.0,45,0.00,,,0.00,LWC V2.00 B2112,2013-11-03 21:21:00,
2013-11-03 16:26:00,58.7,38.5,30.12,NW,314,0.0,0.0,47,0.00,,,0.00,LWC V2.00 B2112,2013-11-03 21:26:00,
2013-11-03 16:31:00,58.3,38.7,30.12,NW,314,0.0,0.0,48,0.00,,,0.00,LWC V2.00 B2112,2013-11-03 21:31:00,
2013-11-03 16:36:00,57.8,38.2,30.12,NW,314,0.0,0.0,48,0.00,,,0.00,LWC V2.00 B2112,2013-11-03 21:36:00,
2013-11-03 16:41:00,57.5,38.0,30.12,NW,314,0.0,0.0,48,0.00,,,0.00,LWC V2.00 B2112,2013-11-03 21:41:00,
2013-11-03 16:46:00,57.2,38.7,30.13,NW,314,0.0,0.0,50,0.00,,,0.00,LWC V2.00 B2112,2013-11-03 21:46:00,
2013-11-03 16:51:00,56.7,38.3,30.13,NW,314,0.0,0.0,50,0.00,,,0.00,LWC V2.00 B2112,2013-11-03 21:51:00,
2013-11-03 16:56:00,56.5,38.1,30.13,NW,314,0.0,0.0,50,0.00,,,0.00,LWC V2.00 B2112,2013-11-03 21:56:00,
2013-11-03 17:01:00,55.9,37.5,30.14,NW,314,0.0,0.0,50,0.00,,,0.00,LWC V2.00 B2112,2013-11-03 22:01:00,
2013-11-03 17:06:00,55.4,37.6,30.14,NW,314,0.0,0.0,51,0.00,,,0.00,LWC V2.00 B2112,2013-11-03 22:06:00,
2013-11-03 17:11:00,55.0,38.2,30.14,NW,313,0.0,0.0,53,0.00,,,0.00,LWC V2.00 B2112,2013-11-03 22:11:00,
2013-11-03 17:16:00,54.5,37.7,30.15,NW,313,0.0,0.0,53,0.00,,,0.00,LWC V2.00 B2112,2013-11-03 22:16:00,
2013-11-03 17:21:00,54.1,37.4,30.15,NW,313,0.0,0.0,53,0.00,,,0.00,LWC V2.00 B2112,2013-11-03 22:21:00,
2013-11-03 17:26:00,53.6,37.8,30.15,NW,313,0.0,0.0,55,0.00,,,0.00,LWC V2.00 B2112,2013-11-03 22:26:00,
2013-11-03 17:31:00,53.2,38.4,30.15,NW,313,0.0,0.0,57,0.00,,,0.00,LWC V2.00 B2112,2013-11-03 22:31:00,
2013-11-03 17:36:00,52.8,38.4,30.15,NW,313,0.0,0.0,58,0.00,,,0.00,LWC V2.00 B2112,2013-11-03 22:36:00,
2013-11-03 17:41:00,52.2,37.9,30.15,NW,313,0.0,0.0,58,0.00,,,0.00,LWC V2.00 B2112,2013-11-03 22:41:00,
2013-11-03 17:46:00,51.6,38.6,30.16,NW,313,0.0,0.0,61,0.00,,,0.00,LWC V2.00 B2112,2013-11-03 22:46:00,
2013-11-03 17:51:00,51.1,38.1,30.16,NW,313,0.0,0.0,61,0.00,,,0.00,LWC V2.00 B2112,2013-11-03 22:51:00,
2013-11-03 17:56:00,50.7,37.7,30.16,NW,313,0.0,0.0,61,0.00,,,0.00,LWC V2.00 B2112,2013-11-03 22:56:00,
2013-11-03 18:01:00,50.4,37.5,30.17,NW,313,0.0,0.0,61,0.00,,,0.00,LWC V2.00 B2112,2013-11-03 23:01:00,
2013-11-03 18:06:00,50.2,37.7,30.17,NW,313,0.0,0.0,62,0.00,,,0.00,LWC V2.00 B2112,2013-11-03 23:06:00,
2013-11-03 18:11:00,49.9,37.8,30.17,NW,313,0.0,0.0,63,0.00,,,0.00,LWC V2.00 B2112,2013-11-03 23:11:00,
2013-11-03 18:16:00,49.6,37.5,30.18,NW,313,0.0,0.0,63,0.00,,,0.00,LWC V2.00 B2112,2013-11-03 23:16:00,
2013-11-03 18:21:00,49.4,38.1,30.18,NW,313,0.0,0.0,65,0.00,,,0.00,LWC V2.00 B2112,2013-11-03 23:21:00,
2013-11-03 18:26:00,49.1,37.8,30.18,NW,313,0.0,0.0,65,0.00,,,0.00,LWC V2.00 B2112,2013-11-03 23:26:00,
2013-11-03 18:31:00,48.6,37.4,30.19,NW,313,0.0,0.0,65,0.00,,,0.00,LWC V2.00 B2112,2013-11-03 23:31:00,
2013-11-03 18:36:00,48.3,37.5,30.19,NW,313,0.0,0.0,66,0.00,,,0.00,LWC V2.00 B2112,2013-11-03 23:36:00,
2013-11-03 18:41:00,48.2,37.4,30.19,NW,313,0.0,0.0,66,0.00,,,0.00,LWC V2.00 B2112,2013-11-03 23:41:00,
2013-11-03 18:46:00,48.0,37.2,30.19,NW,313,0.0,0.0,66,0.00,,,0.00,LWC V2.00 B2112,2013-11-03 23:46:00,
2013-11-03 18:51:00,47.7,37.7,30.19,NW,313,0.0,0.0,68,0.00,,,0.00,LWC V2.00 B2112,2013-11-03 23:51:00,
2013-11-03 18:56:00,47.7,37.3,30.19,NW,313,0.0,0.0,67,0.00,,,0.00,LWC V2.00 B2112,2013-11-03 23:56:00,
2013-11-03 19:01:00,47.6,37.2,30.20,NW,313,0.0,0.0,67,0.00,,,0.00,LWC V2.00 B2112,2013-11-04 00:01:00,
2013-11-03 19:06:00,47.6,37.6,30.20,NW,313,0.0,0.0,68,0.00,,,0.00,LWC V2.00 B2112,2013-11-04 00:06:00,
2013-11-03 19:11:00,47.6,37.2,30.20,NW,313,0.0,0.0,67,0.00,,,0.00,LWC V2.00 B2112,2013-11-04 00:11:00,
2013-11-03 19:16:00,47.6,37.6,30.20,NW,313,0.0,0.0,68,0.00,,,0.00,LWC V2.00 B2112,2013-11-04 00:16:00,
2013-11-03 19:21:00,47.4,37.4,30.20,NW,313,0.0,0.0,68,0.00,,,0.00,LWC V2.00 B2112,2013-11-04 00:21:00,
2013-11-03 19:26:00,47.4,37.7,30.20,NW,313,0.0,0.0,69,0.00,,,0.00,LWC V2.00 B2112,2013-11-04 00:26:00,
2013-11-03 19:31:00,47.3,38.0,30.21,NW,313,0.0,0.0,70,0.00,,,0.00,LWC V2.00 B2112,2013-11-04 00:31:00,
2013-11-03 19:36:00,47.0,37.7,30.21,NW,313,0.0,0.0,70,0.00,,,0.00,LWC V2.00 B2112,2013-11-04 00:36:00,
2013-11-03 19:41:00,46.8,37.9,30.21,NW,313,0.0,0.0,71,0.00,,,0.00,LWC V2.00 B2112,2013-11-04 00:41:00,
2013-11-03 19:46:00,46.7,38.5,30.22,NW,313,0.0,0.0,73,0.00,,,0.00,LWC V2.00 B2112,2013-11-04 00:46:00,
2013-11-03 19:51:00,46.5,37.3,30.22,NW,313,0.0,0.0,70,0.00,,,0.00,LWC V2.00 B2112,2013-11-04 00:51:00,
2013-11-03 19:56:00,46.4,36.8,30.22,NW,313,0.0,0.0,69,0.00,,,0.00,LWC V2.00 B2112,2013-11-04 00:56:00,
2013-11-03 20:01:00,46.4,36.8,30.23,NW,313,0.0,0.0,69,0.00,,,0.00,LWC V2.00 B2112,2013-11-04 01:01:00,
2013-11-03 20:06:00,46.5,36.5,30.23,NW,313,0.0,0.0,68,0.00,,,0.00,LWC V2.00 B2112,2013-11-04 01:06:00,
2013-11-03 20:11:00,46.8,36.8,30.23,NW,307,0.0,0.0,68,0.00,,,0.00,LWC V2.00 B2112,2013-11-04 01:11:00,
2013-11-03 20:16:00,47.0,36.2,30.23,SW,226,0.0,0.0,66,0.00,,,0.00,LWC V2.00 B2112,2013-11-04 01:16:00,
2013-11-03 20:21:00,47.1,36.3,30.23,SW,226,0.0,0.0,66,0.00,,,0.00,LWC V2.00 B2112,2013-11-04 01:21:00,
2013-11-03 20:26:00,47.1,36.7,30.23,SW,226,0.0,0.0,67,0.00,,,0.00,LWC V2.00 B2112,2013-11-04 01:26:00,
2013-11-03 20:31:00,47.1,35.9,30.25,SW,226,0.0,0.0,65,0.00,,,0.00,LWC V2.00 B2112,2013-11-04 01:31:00,
2013-11-03 20:36:00,47.1,36.3,30.25,SW,226,0.0,0.0,66,0.00,,,0.00,LWC V2.00 B2112,2013-11-04 01:36:00,
2013-11-03 20:41:00,47.0,35.9,30.25,SW,226,0.0,0.0,65,0.00,,,0.00,LWC V2.00 B2112,2013-11-04 01:41:00,
2013-11-03 20:46:00,46.8,35.7,30.25,SW,226,0.0,0.0,65,0.00,,,0.00,LWC V2.00 B2112,2013-11-04 01:46:00,
2013-11-03 20:51:00,46.7,35.6,30.25,SW,226,0.0,0.0,65,0.00,,,0.00,LWC V2.00 B2112,2013-11-04 01:51:00,
2013-11-03 20:56:00,46.5,35.4,30.25,SW,226,0.0,0.0,65,0.00,,,0.00,LWC V2.00 B2112,2013-11-04 01:56:00,
2013-11-03 21:01:00,46.4,35.7,30.26,SW,226,0.0,0.0,66,0.00,,,0.00,LWC V2.00 B2112,2013-11-04 02:01:00,
2013-11-03 21:06:00,46.2,35.5,30.26,SW,226,0.0,0.0,66,0.00,,,0.00,LWC V2.00 B2112,2013-11-04 02:06:00,
2013-11-03 21:11:00,46.1,35.4,30.26,SW,226,0.0,0.0,66,0.00,,,0.00,LWC V2.00 B2112,2013-11-04 02:11:00,
2013-11-03 21:16:00,46.0,35.7,30.26,SW,226,0.0,0.0,67,0.00,,,0.00,LWC V2.00 B2112,2013-11-04 02:16:00,
2013-11-03 21:21:00,45.7,35.0,30.26,SW,226,0.0,0.0,66,0.00,,,0.00,LWC V2.00 B2112,2013-11-04 02:21:00,
2013-11-03 21:26:00,45.5,35.2,30.26,SW,226,0.0,0.0,67,0.00,,,0.00,LWC V2.00 B2112,2013-11-04 02:26:00,
2013-11-03 21:31:00,45.4,35.1,30.26,SW,226,0.0,0.0,67,0.00,,,0.00,LWC V2.00 B2112,2013-11-04 02:31:00,
2013-11-03 21:36:00,45.2,34.9,30.26,SW,226,0.0,0.0,67,0.00,,,0.00,LWC V2.00 B2112,2013-11-04 02:36:00,
2013-11-03 21:41:00,45.2,34.9,30.26,SW,226,0.0,0.0,67,0.00,,,0.00,LWC V2.00 B2112,2013-11-04 02:41:00,
2013-11-03 21:46:00,45.2,34.9,30.26,SW,226,0.0,0.0,67,0.00,,,0.00,LWC V2.00 B2112,2013-11-04 02:46:00,
2013-11-03 21:51:00,45.2,34.9,30.26,SW,226,0.0,0.0,67,0.00,,,0.00,LWC V2.00 B2112,2013-11-04 02:51:00,
2013-11-03 21:56:00,45.1,35.2,30.26,SW,226,0.0,0.0,68,0.00,,,0.00,LWC V2.00 B2112,2013-11-04 02:56:00,
2013-11-03 22:01:00,45.1,34.4,30.26,SW,226,0.0,0.0,66,0.00,,,0.00,LWC V2.00 B2112,2013-11-04 03:01:00,
2013-11-03 22:06:00,45.1,34.8,30.26,SW,226,0.0,0.0,67,0.00,,,0.00,LWC V2.00 B2112,2013-11-04 03:06:00,
2013-11-03 22:11:00,45.1,34.4,30.26,SW,226,0.0,0.0,66,0.00,,,0.00,LWC V2.00 B2112,2013-11-04 03:11:00,
2013-11-03 22:16:00,45.1,34.4,30.27,SW,226,0.0,0.0,66,0.00,,,0.00,LWC V2.00 B2112,2013-11-04 03:16:00,
2013-11-03 22:21:00,45.1,34.4,30.27,SW,226,0.0,0.0,66,0.00,,,0.00,LWC V2.00 B2112,2013-11-04 03:21:00,
2013-11-03 22:26:00,45.1,34.4,30.27,SW,226,0.0,0.0,66,0.00,,,0.00,LWC V2.00 B2112,2013-11-04 03:26:00,
2013-11-03 22:31:00,44.8,34.1,30.27,SW,226,0.0,0.0,66,0.00,,,0.00,LWC V2.00 B2112,2013-11-04 03:31:00,
2013-11-03 22:36:00,44.6,34.3,30.27,SW,226,0.0,0.0,67,0.00,,,0.00,LWC V2.00 B2112,2013-11-04 03:36:00,
2013-11-03 22:41:00,44.3,34.0,30.27,SW,226,0.0,0.0,67,0.00,,,0.00,LWC V2.00 B2112,2013-11-04 03:41:00,
2013-11-03 22:46:00,44.1,33.9,30.28,SW,226,0.0,0.0,67,0.00,,,0.00,LWC V2.00 B2112,2013-11-04 03:46:00,
2013-11-03 22:51:00,43.8,34.3,30.28,SW,226,0.0,0.0,69,0.00,,,0.00,LWC V2.00 B2112,2013-11-04 03:51:00,
2013-11-03 22:56:00,43.5,34.0,30.28,SW,226,0.0,0.0,69,0.00,,,0.00,LWC V2.00 B2112,2013-11-04 03:56:00,
2013-11-03 23:01:00,43.3,33.8,30.28,SW,226,0.0,0.0,69,0.00,,,0.00,LWC V2.00 B2112,2013-11-04 04:01:00,
2013-11-03 23:06:00,43.2,33.7,30.28,SW,226,0.0,0.0,69,0.00,,,0.00,LWC V2.00 B2112,2013-11-04 04:06:00,
2013-11-03 23:11:00,43.2,33.7,30.28,SW,226,0.0,0.0,69,0.00,,,0.00,LWC V2.00 B2112,2013-11-04 04:11:00,
2013-11-03 23:16:00,43.1,33.6,30.28,SW,226,0.0,0.0,69,0.00,,,0.00,LWC V2.00 B2112,2013-11-04 04:16:00,
2013-11-03 23:21:00,42.9,33.8,30.28,SW,226,0.0,0.0,70,0.00,,,0.00,LWC V2.00 B2112,2013-11-04 04:21:00,
2013-11-03 23:26:00,42.8,33.7,30.28,SW,226,0.0,0.0,70,0.00,,,0.00,LWC V2.00 B2112,2013-11-04 04:26:00,
2013-11-03 23:31:00,42.6,33.2,30.28,SW,226,0.0,0.0,69,0.00,,,0.00,LWC V2.00 B2112,2013-11-04 04:31:00,
2013-11-03 23:36:00,42.6,33.5,30.28,SW,226,0.0,0.0,70,0.00,,,0.00,LWC V2.00 B2112,2013-11-04 04:36:00,
2013-11-03 23:41:00,42.5,33.4,30.28,SW,226,0.0,0.0,70,0.00,,,0.00,LWC V2.00 B2112,2013-11-04 04:41:00,
2013-11-03 23:46:00,42.5,33.4,30.28,SW,226,0.0,0.0,70,0.00,,,0.00,LWC V2.00 B2112,2013-11-04 04:46:00,
2013-11-03 23:51:00,42.5,33.4,30.28,SW,226,0.0,0.0,70,0.00,,,0.00,LWC V2.00 B2112,2013-11-04 04:51:00,
2013-11-03 23:56:00,42.6,33.2,30.28,SW,226,0.0,0.0,69,0.00,,,0.00,LWC V2.00 B2112,2013-11-04 04:56:00,